Location: *
(49.5667°N, 1.3667°W)
Time: 07:28:30
(UTC+00:00)

ASTEX 1 - Pass Details

Date: 20 September 2019
Orbit: 719 x 744 km, 92.7° (Epoch: 15 October)

Event Time Altitude Azimuth Distance (km) Brightness Sun altitude
Rises 19:02:13 0° 10° (N) 3,146 6.7 -9.4°
Reaches altitude 10° 19:04:35 10° 16° (NNE) 2,219 5.9 -9.8°
Maximum altitude 19:09:20 49° 91° (E) 931 3.6 -10.6°
Drops below altitude 10° 19:14:03 10° 166° (SSE) 2,204 5.6 -11.3°
Sets 19:16:24 0° 172° (S) 3,121 6.4 -11.7°
